Time,TemperatureF,DewpointF,PressureIn,WindDirection,WindDirectionDegrees,WindSpeedMPH,WindSpeedGustMPH,Humidity,HourlyPrecipIn,Conditions,Clouds,dailyrainin,SoftwareType,DateUTC
2013-02-14 00:13:00,32.6,29.0,30.57,NE,49,0.0,0.0,86,0.00,,,0.00,weatherlink.com 1.10,2013-02-14 08:13:00,
2013-02-14 00:28:00,32.3,29.0,30.58,NE,49,0.0,0.0,88,0.00,,,0.00,weatherlink.com 1.10,2013-02-14 08:28:00,
2013-02-14 00:43:00,31.8,29.0,30.59,NE,48,0.0,0.0,88,0.00,,,0.00,weatherlink.com 1.10,2013-02-14 08:43:00,
2013-02-14 00:58:00,31.9,29.0,30.59,NE,47,0.0,0.0,88,0.00,,,0.00,weatherlink.com 1.10,2013-02-14 08:58:00,
2013-02-14 01:13:00,32.2,29.0,30.59,NE,54,0.0,0.0,88,0.00,,,0.00,weatherlink.com 1.10,2013-02-14 09:13:00,
2013-02-14 01:28:00,32.2,29.0,30.60,NE,46,0.0,0.0,87,0.00,,,0.00,weatherlink.com 1.10,2013-02-14 09:28:00,
2013-02-14 01:43:00,32.7,30.0,30.60,NE,51,0.0,0.0,88,0.00,,,0.00,weatherlink.com 1.10,2013-02-14 09:43:00,
2013-02-14 01:58:00,33.5,30.0,30.59,NE,51,0.0,0.0,87,0.00,,,0.00,weatherlink.com 1.10,2013-02-14 09:58:00,
2013-02-14 02:13:00,33.3,30.0,30.59,NE,51,0.0,0.0,87,0.00,,,0.00,weatherlink.com 1.10,2013-02-14 10:13:00,
2013-02-14 02:28:00,33.4,30.0,30.59,NE,51,0.0,0.0,88,0.00,,,0.00,weatherlink.com 1.10,2013-02-14 10:28:00,
2013-02-14 02:43:00,33.5,30.0,30.59,NE,51,0.0,0.0,88,0.00,,,0.00,weatherlink.com 1.10,2013-02-14 10:43:00,
2013-02-14 02:58:00,33.6,30.0,30.59,NE,51,0.0,0.0,88,0.00,,,0.00,weatherlink.com 1.10,2013-02-14 10:58:00,
2013-02-14 03:13:00,33.7,30.0,30.59,ENE,60,0.0,0.0,86,0.00,,,0.00,weatherlink.com 1.10,2013-02-14 11:13:00,
2013-02-14 03:28:00,34.0,30.0,30.59,NE,54,0.0,0.0,86,0.00,,,0.00,weatherlink.com 1.10,2013-02-14 11:28:00,
2013-02-14 03:43:00,34.1,30.0,30.59,NE,54,0.0,0.0,86,0.00,,,0.00,weatherlink.com 1.10,2013-02-14 11:43:00,
2013-02-14 03:58:00,34.1,30.0,30.59,NE,53,0.0,0.0,86,0.00,,,0.00,weatherlink.com 1.10,2013-02-14 11:58:00,
2013-02-14 04:13:00,34.1,31.0,30.58,NE,49,0.0,0.0,87,0.00,,,0.00,weatherlink.com 1.10,2013-02-14 12:13:00,
2013-02-14 04:28:00,34.3,31.0,30.59,NE,49,0.0,0.0,87,0.00,,,0.00,weatherlink.com 1.10,2013-02-14 12:28:00,
2013-02-14 04:43:00,34.3,31.0,30.59,NE,49,0.0,0.0,87,0.00,,,0.00,weatherlink.com 1.10,2013-02-14 12:43:00,
2013-02-14 04:58:00,34.4,31.0,30.59,NE,49,0.0,0.0,87,0.00,,,0.00,weatherlink.com 1.10,2013-02-14 12:58:00,
2013-02-14 05:13:00,34.3,31.0,30.59,NE,49,0.0,0.0,86,0.00,,,0.00,weatherlink.com 1.10,2013-02-14 13:13:00,
2013-02-14 05:28:00,34.4,30.0,30.59,NE,49,0.0,0.0,85,0.00,,,0.00,weatherlink.com 1.10,2013-02-14 13:28:00,
2013-02-14 05:43:00,34.4,30.0,30.60,NE,49,0.0,0.0,85,0.00,,,0.00,weatherlink.com 1.10,2013-02-14 13:43:00,
2013-02-14 05:58:00,34.1,30.0,30.60,NE,48,0.0,0.0,86,0.00,,,0.00,weatherlink.com 1.10,2013-02-14 13:58:00,
2013-02-14 06:13:00,33.8,30.0,30.61,NE,49,0.0,0.0,86,0.00,,,0.00,weatherlink.com 1.10,2013-02-14 14:13:00,
2013-02-14 06:28:00,33.6,30.0,30.61,NE,49,0.0,0.0,87,0.00,,,0.00,weatherlink.com 1.10,2013-02-14 14:28:00,
2013-02-14 06:43:00,33.5,30.0,30.60,NE,49,0.0,0.0,88,0.00,,,0.00,weatherlink.com 1.10,2013-02-14 14:43:00,
2013-02-14 06:58:00,33.3,30.0,30.60,NE,49,0.0,0.0,88,0.00,,,0.00,weatherlink.com 1.10,2013-02-14 14:58:00,
2013-02-14 07:13:00,33.2,30.0,30.61,NE,49,0.0,0.0,88,0.00,,,0.00,weatherlink.com 1.10,2013-02-14 15:13:00,
2013-02-14 07:28:00,33.3,30.0,30.61,ENE,77,0.0,0.0,89,0.00,,,0.00,weatherlink.com 1.10,2013-02-14 15:28:00,
2013-02-14 07:43:00,33.5,31.0,30.61,ENE,61,0.0,0.0,89,0.00,,,0.00,weatherlink.com 1.10,2013-02-14 15:43:00,
2013-02-14 07:58:00,33.7,31.0,30.62,ENE,61,0.0,0.0,90,0.00,,,0.00,weatherlink.com 1.10,2013-02-14 15:58:00,
2013-02-14 08:13:00,34.1,31.0,30.63,ENE,61,0.0,0.0,89,0.00,,,0.00,weatherlink.com 1.10,2013-02-14 16:13:00,
2013-02-14 08:28:00,34.3,32.0,30.63,NE,43,0.0,0.0,90,0.00,,,0.00,weatherlink.com 1.10,2013-02-14 16:28:00,
2013-02-14 08:43:00,34.8,32.0,30.62,NE,46,0.0,0.0,89,0.00,,,0.00,weatherlink.com 1.10,2013-02-14 16:43:00,
2013-02-14 08:58:00,35.5,32.0,30.63,ENE,66,0.0,0.0,88,0.00,,,0.00,weatherlink.com 1.10,2013-02-14 16:58:00,
2013-02-14 09:14:00,36.0,33.0,30.63,NE,43,0.0,0.0,87,0.00,,,0.00,weatherlink.com 1.10,2013-02-14 17:14:00,
2013-02-14 09:29:00,37.4,33.0,30.63,NE,44,0.0,0.0,85,0.00,,,0.00,weatherlink.com 1.10,2013-02-14 17:29:00,
2013-02-14 09:44:00,38.7,34.0,30.63,ENE,64,0.0,0.0,82,0.00,,,0.00,weatherlink.com 1.10,2013-02-14 17:44:00,
2013-02-14 09:59:00,40.5,34.0,30.62,NE,41,0.0,0.0,77,0.00,,,0.00,weatherlink.com 1.10,2013-02-14 17:59:00,
2013-02-14 10:14:00,41.3,34.0,30.62,ENE,71,0.0,0.0,74,0.00,,,0.00,weatherlink.com 1.10,2013-02-14 18:14:00,
2013-02-14 10:29:00,42.2,34.0,30.63,NE,56,0.0,0.0,73,0.00,,,0.00,weatherlink.com 1.10,2013-02-14 18:29:00,
2013-02-14 10:44:00,44.0,35.0,30.63,NE,56,0.0,0.0,70,0.00,,,0.00,weatherlink.com 1.10,2013-02-14 18:44:00,
2013-02-14 10:59:00,46.9,36.0,30.64,NE,46,0.0,0.0,66,0.00,,,0.00,weatherlink.com 1.10,2013-02-14 18:59:00,
2013-02-14 11:14:00,46.9,36.0,30.64,NE,53,0.0,0.0,65,0.00,,,0.00,weatherlink.com 1.10,2013-02-14 19:14:00,
2013-02-14 11:29:00,45.9,35.0,30.63,NE,45,0.0,0.0,66,0.00,,,0.00,weatherlink.com 1.10,2013-02-14 19:29:00,
2013-02-14 11:44:00,45.5,35.0,30.63,NE,46,0.0,0.0,66,0.00,,,0.00,weatherlink.com 1.10,2013-02-14 19:44:00,
2013-02-14 11:59:00,45.3,35.0,30.62,NE,42,0.0,0.0,67,0.00,,,0.00,weatherlink.com 1.10,2013-02-14 19:59:00,
2013-02-14 12:14:00,45.6,35.0,30.62,ENE,70,0.0,0.0,66,0.00,,,0.00,weatherlink.com 1.10,2013-02-14 20:14:00,
2013-02-14 12:29:00,47.3,35.0,30.61,NE,55,0.0,0.0,63,0.00,,,0.00,weatherlink.com 1.10,2013-02-14 20:29:00,
2013-02-14 12:44:00,47.1,35.0,30.61,NE,56,0.0,0.0,63,0.00,,,0.00,weatherlink.com 1.10,2013-02-14 20:44:00,
2013-02-14 12:59:00,46.5,34.0,30.61,ENE,60,0.0,0.0,63,0.00,,,0.00,weatherlink.com 1.10,2013-02-14 20:59:00,
2013-02-14 13:14:00,46.2,34.0,30.61,NE,41,0.0,0.0,63,0.00,,,0.00,weatherlink.com 1.10,2013-02-14 21:14:00,
2013-02-14 13:29:00,46.1,34.0,30.61,NE,43,0.0,0.0,64,0.00,,,0.00,weatherlink.com 1.10,2013-02-14 21:29:00,
2013-02-14 13:44:00,46.0,34.0,30.61,NE,41,0.0,0.0,64,0.00,,,0.00,weatherlink.com 1.10,2013-02-14 21:44:00,
2013-02-14 13:59:00,45.6,34.0,30.61,ENE,61,0.0,0.0,65,0.00,,,0.00,weatherlink.com 1.10,2013-02-14 21:59:00,
2013-02-14 14:14:00,45.1,35.0,30.61,ENE,58,0.0,0.0,68,0.00,,,0.00,weatherlink.com 1.10,2013-02-14 22:14:00,
2013-02-14 14:29:00,43.5,35.0,30.62,ENE,58,0.0,0.0,72,0.00,,,0.00,weatherlink.com 1.10,2013-02-14 22:29:00,
2013-02-14 14:44:00,42.6,35.0,30.62,NNE,33,0.0,0.0,74,0.00,,,0.00,weatherlink.com 1.10,2013-02-14 22:44:00,
2013-02-14 14:59:00,43.5,36.0,30.62,NE,47,0.0,0.0,74,0.00,,,0.00,weatherlink.com 1.10,2013-02-14 22:59:00,
2013-02-14 15:14:00,43.9,35.0,30.62,NE,50,0.0,0.0,71,0.00,,,0.00,weatherlink.com 1.10,2013-02-14 23:14:00,
2013-02-14 15:29:00,42.8,35.0,30.62,NE,38,0.0,0.0,73,0.00,,,0.00,weatherlink.com 1.10,2013-02-14 23:29:00,
2013-02-14 15:44:00,42.2,35.0,30.62,NE,39,0.0,0.0,77,0.00,,,0.00,weatherlink.com 1.10,2013-02-14 23:44:00,
2013-02-14 15:59:00,42.0,36.0,30.62,NE,38,0.0,0.0,78,0.00,,,0.00,weatherlink.com 1.10,2013-02-14 23:59:00,
2013-02-14 16:14:00,40.8,34.0,30.63,NE,38,0.0,0.0,78,0.00,,,0.00,weatherlink.com 1.10,2013-02-15 00:14:00,
2013-02-14 16:29:00,39.6,34.0,30.63,NE,39,0.0,0.0,81,0.00,,,0.00,weatherlink.com 1.10,2013-02-15 00:29:00,
2013-02-14 16:44:00,39.1,34.0,30.63,NE,39,0.0,0.0,82,0.00,,,0.00,weatherlink.com 1.10,2013-02-15 00:44:00,
2013-02-14 16:59:00,38.4,34.0,30.63,NE,38,0.0,0.0,84,0.00,,,0.00,weatherlink.com 1.10,2013-02-15 00:59:00,
2013-02-14 17:14:00,37.9,34.0,30.63,NE,38,0.0,0.0,84,0.00,,,0.00,weatherlink.com 1.10,2013-02-15 01:14:00,
2013-02-14 17:29:00,37.2,33.0,30.63,ENE,71,0.0,0.0,86,0.00,,,0.00,weatherlink.com 1.10,2013-02-15 01:29:00,
2013-02-14 17:44:00,36.6,33.0,30.62,ENE,67,0.0,0.0,87,0.00,,,0.00,weatherlink.com 1.10,2013-02-15 01:44:00,
2013-02-14 17:59:00,36.1,33.0,30.63,ENE,58,0.0,0.0,87,0.00,,,0.00,weatherlink.com 1.10,2013-02-15 01:59:00,
2013-02-14 18:14:00,35.7,33.0,30.63,ENE,58,0.0,0.0,88,0.00,,,0.00,weatherlink.com 1.10,2013-02-15 02:14:00,
2013-02-14 18:29:00,35.1,32.0,30.63,NE,46,0.0,0.0,89,0.00,,,0.00,weatherlink.com 1.10,2013-02-15 02:29:00,
2013-02-14 18:44:00,34.8,32.0,30.64,NE,51,0.0,0.0,89,0.00,,,0.00,weatherlink.com 1.10,2013-02-15 02:44:00,
2013-02-14 18:59:00,34.7,32.0,30.64,NE,51,0.0,0.0,90,0.00,,,0.00,weatherlink.com 1.10,2013-02-15 02:59:00,
2013-02-14 19:14:00,34.5,32.0,30.65,NE,51,0.0,0.0,90,0.00,,,0.00,weatherlink.com 1.10,2013-02-15 03:14:00,
2013-02-14 19:29:00,34.8,32.0,30.65,NE,51,0.0,0.0,90,0.00,,,0.00,weatherlink.com 1.10,2013-02-15 03:29:00,
2013-02-14 19:44:00,35.2,33.0,30.65,NE,51,0.0,0.0,90,0.00,,,0.00,weatherlink.com 1.10,2013-02-15 03:44:00,
2013-02-14 19:59:00,34.5,32.0,30.64,NE,40,0.0,0.0,89,0.00,,,0.00,weatherlink.com 1.10,2013-02-15 03:59:00,
2013-02-14 20:14:00,34.1,32.0,30.65,NE,40,0.0,0.0,90,0.00,,,0.00,weatherlink.com 1.10,2013-02-15 04:14:00,
2013-02-14 20:29:00,34.0,32.0,30.65,NE,40,0.0,0.0,91,0.00,,,0.00,weatherlink.com 1.10,2013-02-15 04:29:00,
2013-02-14 20:44:00,33.7,31.0,30.65,NE,40,0.0,0.0,91,0.00,,,0.00,weatherlink.com 1.10,2013-02-15 04:44:00,
2013-02-14 20:59:00,33.7,31.0,30.65,NE,46,0.0,0.0,91,0.00,,,0.00,weatherlink.com 1.10,2013-02-15 04:59:00,
2013-02-14 21:14:00,33.6,31.0,30.66,NE,44,0.0,0.0,91,0.00,,,0.00,weatherlink.com 1.10,2013-02-15 05:14:00,
2013-02-14 21:29:00,33.8,32.0,30.66,NE,44,0.0,0.0,92,0.00,,,0.00,weatherlink.com 1.10,2013-02-15 05:29:00,
2013-02-14 21:44:00,33.1,31.0,30.66,NE,44,0.0,0.0,91,0.00,,,0.00,weatherlink.com 1.10,2013-02-15 05:44:00,
2013-02-14 21:59:00,32.8,31.0,30.67,NE,44,0.0,0.0,92,0.00,,,0.00,weatherlink.com 1.10,2013-02-15 05:59:00,
2013-02-14 22:14:00,32.6,31.0,30.67,NE,44,0.0,0.0,92,0.00,,,0.00,weatherlink.com 1.10,2013-02-15 06:14:00,
2013-02-14 22:30:00,32.1,30.0,30.68,NE,44,0.0,0.0,92,0.00,,,0.00,weatherlink.com 1.10,2013-02-15 06:30:00,
2013-02-14 22:45:00,31.9,30.0,30.68,NE,44,0.0,0.0,93,0.00,,,0.00,weatherlink.com 1.10,2013-02-15 06:45:00,
2013-02-14 23:00:00,31.8,30.0,30.68,NE,44,0.0,0.0,93,0.00,,,0.00,weatherlink.com 1.10,2013-02-15 07:00:00,
2013-02-14 23:15:00,31.3,30.0,30.69,NE,44,0.0,0.0,93,0.00,,,0.00,weatherlink.com 1.10,2013-02-15 07:15:00,
2013-02-14 23:30:00,31.3,30.0,30.69,NE,44,0.0,0.0,93,0.00,,,0.00,weatherlink.com 1.10,2013-02-15 07:30:00,
2013-02-14 23:45:00,31.1,29.0,30.70,NE,44,0.0,0.0,93,0.00,,,0.00,weatherlink.com 1.10,2013-02-15 07:45:00,